Erie, CO

11:49 AM MDT on May 28, 2017 (GMT -0600)
Erie Municipal Airport

Weather History for KEIK - April, 2013

Change the Weather History Date:

Monday, April 1, 2013

  Actual Average (KBJC) Record (KBJC)
Temperature  
Mean Temperature 40 °F -  
Max Temperature 53 °F 53 °F 82 °F (2012)
Min Temperature 26 °F 32 °F 16 °F (1988)
Degree Days  
Heating Degree Days 26    
Moisture  
Dew Point 31 °F    
Average Humidity 70    
Maximum Humidity 96    
Minimum Humidity 43    
Precipitation  
Precipitation 0.00 in - - ()
Sea Level Pressure  
Sea Level Pressure 30.10 in    
Wind  
Wind Speed 4 mph (North)    
Max Wind Speed 18 mph    
Max Gust Speed 23 mph    
Visibility 10 miles    
Events Rain , Thunderstorm    
Averages and records for this station are not official NWS values.
T = Trace of Precipitation, MM = Missing Value Source: NWS Daily Summary

Daily Weather History Graph

Daily Weather History Graph

Search for Another Location

Airport or City:

Trip Planner

Search our weather history database for the weather conditions in past years. The results will help you decide how hot, cold, wet, or windy it might be!

Date:

Astronomy

Apr. 01, 2013 Rise Set
Actual Time 6:43 AM MDT 7:24 PM MDT
Civil Twilight 6:16 AM MDT 7:52 PM MDT
Nautical Twilight 5:44 AM MDT 8:24 PM MDT
Astronomical Twilight 5:10 AM MDT 8:57 PM MDT
Moon 12:35 AM MDT (4/1) 10:33 AM MDT (4/1)
Length of Visible Light 13h 35m
Length of Day
12h 41m
Waning Gibbous, 66% of the Moon is Illuminated
Apr 1
Waning Gibbous
Apr 2
Last Quarter
Apr 10
New
Apr 18
First Quarter
Apr 25
Full

Hourly Weather History & Observations

Time (MDT) Temp. Windchill Dew Point Humidity Pressure Visibility Wind Dir Wind Speed Gust Speed Precip Events Conditions
12:16 AM 40.8 °F 38.8 °F 26.8 °F 57% 30.15 in 10.0 mi North 3.5 mph - N/A   Clear
12:36 AM 40.6 °F 38.6 °F 26.6 °F 57% 30.15 in 10.0 mi North 3.5 mph - N/A   Clear
1:16 AM 37.8 °F - 27.9 °F 67% 30.16 in 10.0 mi Calm Calm - N/A   Clear
1:36 AM 36.5 °F - 28.0 °F 71% 30.16 in 10.0 mi Calm Calm - N/A   Clear
1:56 AM 36.7 °F - 28.2 °F 71% 30.15 in 10.0 mi Calm Calm - N/A   Clear
2:16 AM 35.4 °F - 28.4 °F 76% 30.15 in 10.0 mi Calm Calm - N/A   Clear
2:36 AM 35.4 °F - 27.9 °F 74% 30.16 in 10.0 mi Calm Calm - N/A   Clear
2:56 AM 33.8 °F - 28.4 °F 81% 30.15 in 10.0 mi Calm Calm - N/A   Clear
3:16 AM 33.1 °F - 29.1 °F 85% 30.15 in 10.0 mi Calm Calm - N/A   Clear
3:36 AM 34.0 °F - 29.7 °F 84% 30.15 in 10.0 mi Calm Calm - N/A   Clear
3:56 AM 34.5 °F - 29.5 °F 82% 30.14 in 10.0 mi Calm Calm - N/A   Clear
4:16 AM 32.4 °F - 28.9 °F 87% 30.13 in 10.0 mi Calm Calm - N/A   Clear
4:36 AM 31.8 °F - 28.6 °F 88% 30.14 in 10.0 mi Calm Calm - N/A   Clear
4:56 AM 30.9 °F 27.5 °F 28.6 °F 91% 30.14 in 10.0 mi NE 3.5 mph - N/A   Clear
5:16 AM 29.3 °F 25.6 °F 27.3 °F 92% 30.14 in 10.0 mi NNE 3.5 mph - N/A   Clear
5:36 AM 29.1 °F - 27.7 °F 94% 30.14 in 10.0 mi Calm Calm - N/A   Clear
6:16 AM 28.4 °F - 27.1 °F 95% 30.14 in 10.0 mi Calm Calm - N/A   Clear
6:36 AM 27.1 °F - 26.1 °F 96% 30.14 in 10.0 mi Calm Calm - N/A   Clear
6:56 AM 26.8 °F 22.8 °F 25.9 °F 96% 30.14 in 10.0 mi North 3.5 mph - N/A   Clear
7:16 AM 27.5 °F 23.6 °F 26.6 °F 96% 30.15 in 10.0 mi North 3.5 mph - N/A   Clear
7:36 AM 29.7 °F 26.1 °F 28.8 °F 96% 30.15 in 10.0 mi NNW 3.5 mph - N/A   Clear
7:56 AM 31.8 °F 27.3 °F 29.7 °F 92% 30.15 in 10.0 mi North 4.6 mph - N/A   Clear
8:16 AM 32.2 °F 27.7 °F 30.0 °F 92% 30.15 in 10.0 mi North 4.6 mph - N/A   Clear
8:36 AM 33.3 °F 28.9 °F 30.0 °F 88% 30.15 in 10.0 mi North 4.6 mph - N/A   Clear
8:56 AM 34.3 °F 30.2 °F 30.4 °F 85% 30.14 in 10.0 mi North 4.6 mph - N/A   Clear
9:16 AM 36.0 °F 32.1 °F 31.1 °F 82% 30.14 in 10.0 mi NNW 4.6 mph - N/A   Clear
9:36 AM 36.3 °F 33.7 °F 30.9 °F 81% 30.13 in 10.0 mi NNE 3.5 mph - N/A   Clear
9:56 AM 37.4 °F 33.8 °F 31.1 °F 78% 30.13 in 10.0 mi North 4.6 mph - N/A   Clear
10:16 AM 38.3 °F 33.2 °F 31.3 °F 76% 30.12 in 10.0 mi NNE 6.9 mph - N/A Thunderstorm Clear
10:36 AM 40.1 °F 35.3 °F 32.0 °F 73% 30.12 in 10.0 mi North 6.9 mph - N/A   Clear
10:56 AM 41.2 °F 36.0 °F 32.0 °F 70% 30.11 in 10.0 mi North 8.1 mph - N/A   Clear
11:16 AM 42.4 °F 38.1 °F 31.5 °F 65% 30.11 in 10.0 mi NNW 6.9 mph - N/A   Clear
11:36 AM 43.2 °F 37.9 °F 31.5 °F 63% 30.09 in 10.0 mi North 9.2 mph - N/A   Clear
11:56 AM 43.3 °F 39.2 °F 31.1 °F 62% 30.09 in 10.0 mi North 6.9 mph - N/A   Clear
12:16 PM 44.1 °F 39.5 °F 31.6 °F 62% 30.09 in 10.0 mi NNW 8.1 mph - N/A   Scattered Clouds
12:36 PM 45.0 °F 40.6 °F 31.8 °F 60% 30.08 in 10.0 mi NNW 8.1 mph - N/A   Mostly Cloudy
12:56 PM 45.5 °F 40.3 °F 32.2 °F 60% 30.07 in 10.0 mi North 10.4 mph - N/A   Overcast
1:16 PM 47.5 °F - 32.0 °F 55% 30.07 in 10.0 mi North 10.4 mph - N/A   Mostly Cloudy
1:36 PM 50.0 °F - 32.0 °F 50% 30.06 in 10.0 mi NNW 11.5 mph 19.6 mph N/A   Mostly Cloudy
1:56 PM 49.1 °F - 32.0 °F 52% 30.06 in 10.0 mi NNW 11.5 mph - N/A   Scattered Clouds
2:16 PM 50.2 °F - 32.0 °F 50% 30.05 in 10.0 mi NNW 10.4 mph 18.4 mph N/A   Mostly Cloudy
2:36 PM 51.6 °F - 31.6 °F 46% 30.03 in 10.0 mi North 8.1 mph - N/A   Mostly Cloudy
2:56 PM 53.1 °F - 31.8 °F 44% 30.01 in 10.0 mi North 15.0 mph 21.9 mph N/A   Scattered Clouds
3:16 PM 52.9 °F - 32.0 °F 45% 30.02 in 10.0 mi North 10.4 mph 20.7 mph N/A   Scattered Clouds
3:36 PM 52.3 °F - 31.5 °F 45% 30.02 in 10.0 mi NNE 12.7 mph 16.1 mph N/A   Scattered Clouds
3:56 PM 52.9 °F - 31.6 °F 44% 30.00 in 10.0 mi NNE 13.8 mph 17.3 mph N/A   Overcast
4:16 PM 53.8 °F - 31.5 °F 43% 30.01 in 10.0 mi North 12.7 mph 21.9 mph N/A   Scattered Clouds
4:36 PM 50.7 °F - 32.0 °F 49% 30.02 in 10.0 mi North 12.7 mph - N/A   Clear
5:16 PM 49.5 °F - 32.0 °F 51% 30.01 in 10.0 mi North 16.1 mph 23.0 mph N/A   Overcast
5:36 PM 49.3 °F - 32.0 °F 51% 30.02 in 10.0 mi North 18.4 mph - N/A   Overcast
5:56 PM 49.1 °F - 32.0 °F 52% 30.03 in 10.0 mi NNE 12.7 mph - N/A   Mostly Cloudy
6:16 PM 47.5 °F - 32.0 °F 55% 30.03 in 10.0 mi North 16.1 mph - N/A   Scattered Clouds
6:36 PM 46.4 °F 41.5 °F 31.6 °F 56% 30.04 in 10.0 mi NNE 10.4 mph - N/A   Clear
6:56 PM 45.5 °F 39.9 °F 31.6 °F 58% 30.04 in 10.0 mi NNE 11.5 mph 18.4 mph N/A   Mostly Cloudy
7:16 PM 44.8 °F 39.4 °F 31.6 °F 60% 30.05 in 10.0 mi NNE 10.4 mph - N/A   Overcast
7:36 PM 44.4 °F 40.5 °F 31.8 °F 61% 30.05 in 10.0 mi North 6.9 mph - N/A   Overcast
7:56 PM 43.7 °F 39.1 °F 32.0 °F 63% 30.07 in 10.0 mi North 8.1 mph - N/A   Overcast
8:16 PM 43.7 °F 39.1 °F 32.0 °F 63% 30.07 in 10.0 mi NNE 8.1 mph - N/A   Overcast
8:36 PM 43.0 °F 38.8 °F 32.0 °F 65% 30.08 in 10.0 mi NNE 6.9 mph - N/A   Overcast
8:56 PM 43.0 °F 38.8 °F 32.0 °F 65% 30.08 in 10.0 mi NNE 6.9 mph - N/A   Overcast
9:16 PM 42.8 °F 41.1 °F 32.0 °F 66% 30.09 in 10.0 mi North 3.5 mph - N/A   Overcast
9:36 PM 42.3 °F 40.5 °F 32.2 °F 67% 30.09 in 10.0 mi NNW 3.5 mph - N/A Rain Light Rain
9:56 PM 41.4 °F 38.4 °F 32.2 °F 70% 30.10 in 10.0 mi NE 4.6 mph - N/A   Overcast
10:16 PM 40.8 °F 37.8 °F 33.4 °F 75% 30.09 in 10.0 mi ENE 4.6 mph - N/A   Overcast
10:36 PM 40.5 °F - 33.1 °F 75% 30.09 in 10.0 mi Calm Calm - N/A Rain Light Rain
10:56 PM 39.7 °F - 32.9 °F 77% 30.09 in 10.0 mi Calm Calm - N/A Rain Light Rain
11:16 PM 39.2 °F 37.0 °F 34.2 °F 82% 30.09 in 10.0 mi NNE 3.5 mph - N/A Rain Light Rain
11:36 PM 38.3 °F 35.9 °F 34.9 °F 87% 30.09 in 10.0 mi East 3.5 mph - N/A Rain Light Rain
11:56 PM 38.3 °F 35.9 °F 35.2 °F 89% 30.09 in 10.0 mi East 3.5 mph - N/A   Light Drizzle